[[{"header":{"parameterUnit":"m.s-1","parameterCategory":2,"la1":30.2991,"la2":30.254,"lo1":-89.0895,"lo2":-89.0444,"dy":0.0017,"dx":0.0017,"nx":28,"ny":28,"refTime":"2024-03-22T03:00:00:Z","depth":"0","parameterNumber":2,"parameterNumberName":"U-component_of_CURRENTS"},"data":[0,0,0,0,0,0,0,0,0,0,0,0,0,0,0,0,0,0,0,0,0,0,0,0,0,0,0,0,0,0,0,0,0,0,0,0,0,0,0,0,0,0,0,0,0,0,0,0,0,0,0,0,0,0,0,0,0,0,0.316,0.3161,0,0.3186,0.3186,0.3185,0.3153,0.3153,0.3152,0.3152,0.3092,0.3091,0.3089,0,0,0,0,0,0,0,0,0,0,0,0,0,0.306,0.3061,0.316,0.3161,0.3162,0.3186,0.3186,0.3185,0.3153,0.3153,0.3152,0.3151,0.3092,0.3091,0.3089,0,0,0,0,0,0,0,0,0,0,0,0,0,0.3089,0.3061,0.3159,0.3154,0.3154,0.3186,0.3186,0.3185,0.3153,0.3153,0.3152,0.3151,0.3092,0.3091,0.3089,0.3093,0,0,0.3084,0.3083,0,0,0,0,0,0,0,0,0.3087,0.3092,0.3154,0.3155,0.3155,0.3172,0.3129,0.3153,0.3153,0.3146,0.3152,0.3151,0.3116,0.3113,0.3109,0.3091,0.3088,0.3084,0.3083,0.3082,0.3082,0,0,0,0,0,0,0,0.3085,0.309,0.3162,0.3155,0.3156,0.3144,0.3146,0.3133,0.3127,0.3146,0.3146,0.3161,0.3115,0.3111,0.3108,0.3087,0.3084,0.3082,0.3081,0.3081,0.3102,0.3104,0,0,0,0,0,0,0.31,0.3089,0.3162,0.3164,0.3127,0.3147,0.3149,0.3161,0.3129,0.3127,0.3162,0.316,0.3114,0.311,0.3105,0.3144,0.3082,0.308,0.3079,0.31,0.3102,0.3104,0,0,0,0,0,0,0.3098,0.3106,0.3161,0.3133,0.314,0.315,0.3163,0.3162,0.3163,0.3144,0.3137,0.3165,0.3114,0.3108,0.3106,0.314,0.308,0.3078,0.3099,0.3101,0.3103,0.3198,0,0,0,0,0,0,0.3094,0.3105,0.3115,0.3134,0.3142,0.318,0.3165,0.3164,0.3177,0.3174,0.3144,0.3138,0.3113,0.3109,0.3104,0.3136,0.3077,0.3097,0.31,0.3102,0.3193,0.3203,0.3212,0,0,0,0,0,0.3091,0.3102,0.3115,0.3125,0.3157,0.3181,0.3183,0.3182,0.3178,0.3179,0.3168,0.3139,0.3125,0.3109,0.3103,0.3135,0.3095,0.3099,0.3102,0.3188,0.3201,0.3212,0,0,0,0,0,0,0.3052,0.3101,0.3116,0.3139,0.3164,0.3178,0.3185,0.319,0.3183,0.3177,0.3153,0.3147,0.3163,0.3135,0.3118,0.3151,0.3107,0.311,0.3175,0.3186,0.3196,0.3214,0.3075,0,0,0,0,0,0.3057,0.3081,0.3122,0.3139,0.3157,0.3175,0.3185,0.3188,0.3191,0.3187,0.3178,0.3168,0.3174,0.3167,0.3161,0.3172,0.3188,0.3191,0.3201,0.3209,0.3221,0.3291,0.3308,0.3116,0.3116,0.3116,0,0,0.3047,0.3078,0.3091,0.3134,0.3152,0.3183,0.3176,0.3195,0.3217,0.3182,0.3202,0.3201,0.3186,0.3207,0.3211,0.3185,0.3275,0.3214,0.3221,0.3228,0.3296,0.3315,0.3332,0.3118,0.3118,0.3117,0,0,0.3044,0.307,0.3095,0.3121,0.3163,0.3183,0.3194,0.3222,0.323,0.3252,0.3247,0.3271,0.3259,0.3274,0.3275,0.3333,0.3328,0.3328,0.3386,0.3454,0.3471,0.3486,0.3543,0.3562,0.3328,0.3328,0.3328,0,0.3034,0.3073,0.3103,0.3135,0.3163,0.3189,0.322,0.3238,0.3261,0.3293,0.3264,0.3318,0.3297,0.3358,0.3376,0.3358,0.3392,0.3343,0.3469,0.3484,0.3498,0.3552,0.3572,0.3333,0.3332,0.3332,0.3331,0,0.3058,0.3087,0.3102,0.3162,0.3192,0.3218,0.3263,0.3292,0.3312,0.3349,0.3413,0.3403,0.344,0.3442,0.3419,0.3516,0.3508,0.348,0.3443,0.3524,0.3575,0.3594,0.334,0.3338,0.3337,0.3335,0,0,0.304,0.3108,0.3114,0.3147,0.3208,0.3237,0.329,0.3365,0.3413,0.345,0.352,0.3551,0.3572,0.3576,0.3569,0.3618,0.3737,0.3592,0.3593,0.3655,0.3896,0.3851,0.3867,0.374,0.3743,0.3746,0.3897,0,0.3054,0.3115,0.3148,0.3205,0.3245,0.329,0.3338,0.3408,0.3458,0.3528,0.3577,0.3625,0.3616,0.3626,0.3693,0.3724,0.3791,0.3699,0.3803,0.3806,0.3762,0.3888,0.37,0.3816,0.3916,0.3919,0.3921,0,0.3072,0.3116,0.3169,0.3243,0.3265,0.3294,0.3393,0.3439,0.355,0.3596,0.3688,0.3715,0.3816,0.3763,0.392,0.3867,0.3897,0.3916,0.3922,0.386,0.3796,0.3749,0.3847,0.3712,0.3951,0.3948,0.3946,0,0.3058,0.3131,0.3175,0.3198,0.3283,0.3311,0.3357,0.346,0.3508,0.3636,0.3688,0.3823,0.3873,0.3961,0.402,0.3979,0.4174,0.4116,0.4114,0.411,0.3959,0.3936,0.3941,0.4229,0.4229,0.4228,0.4228,0,0.3064,0.3095,0.3163,0.3185,0.3219,0.3298,0.3347,0.3417,0.3525,0.3604,0.3715,0.3794,0.3924,0.4037,0.408,0.4184,0.4241,0.4164,0.4164,0.3986,0.3965,0.3843,0.3795,0.4234,0.4233,0.4232,0.4231,0,0.3018,0.3075,0.3108,0.3187,0.3201,0.3218,0.3291,0.3345,0.3467,0.3567,0.3607,0.3805,0.398,0.4102,0.4249,0.4254,0.4214,0.4348,0.413,0.4102,0.3941,0.3906,0.3817,0.3705,0.4377,0.4377,0.4377,0,0.2998,0.3019,0.3063,0.3074,0.3092,0.3131,0.316,0.3279,0.3346,0.3568,0.3618,0.3825,0.396,0.4196,0.4257,0.4369,0.4229,0.4227,0.4106,0.3946,0.3907,0.3749,0.3649,0.3949,0.3945,0.3942,0.394,0,0.2948,0.2953,0.2975,0.298,0.2996,0.3026,0.3087,0.3121,0.3293,0.3411,0.3591,0.3713,0.3961,0.4019,0.4172,0.42,0.3996,0.4171,0.4061,0.3638,0.341,0.3295,0.3835,0.3915,0.3917,0.3919,0.3921,0.3922,0.2882,0.2858,0.2876,0.288,0.2899,0.2918,0.291,0.3023,0.3112,0.3272,0.3474,0.3615,0.3753,0.3955,0.3966,0.3837,0.3852,0.3694,0.369,0.3563,0.3369,0.3861,0.3899,0.3901,0.3903,0.3905,0.3907,0,0.2792,0.2786,0.279,0.2779,0.2774,0.2817,0.2864,0.2861,0.293,0.3125,0.3283,0.3398,0.3443,0.3519,0.3494,0.3364,0.3186,0.3257,0.2972,0.2918,0.3407,0.3297,0.3136,0.3136,0.3136,0.3136,0.3136,0.3136,0.2742,0.2703,0.2708,0.2665,0.2668,0.2611,0.2614,0.2635,0.2724,0.281,0.2883,0.3022,0.3148,0.3175,0.3039,0.2965,0.2729,0.2595,0.262,0.2939,0.2977,0.3013,0.2897,0.2654,0.2653,0.1955,0.1949,0.1946]},{"header":{"parameterUnit":"m.s-1","parameterCategory":2,"la1":30.2991,"la2":30.254,"lo1":-89.0895,"lo2":-89.0444,"dy":0.0017,"dx":0.0017,"nx":28,"ny":28,"refTime":"2024-03-22T03:00:00:Z","depth":"0","parameterNumber":3,"parameterNumberName":"V-component_of_CURRENTS"},"data":[0,0,0,0,0,0,0,0,0,0,0,0,0,0,0,0,0,0,0,0,0,0,0,0,0,0,0,0,0,0,0,0,0,0,0,0,0,0,0,0,0,0,0,0,0,0,0,0,0,0,0,0,0,0,0,0,0,0,-0.0301,-0.0301,0,-0.0345,-0.0346,-0.0346,-0.0379,-0.038,-0.038,-0.038,-0.0486,-0.0488,-0.0491,0,0,0,0,0,0,0,0,0,0,0,0,0,-0.0241,-0.0242,-0.03,-0.0301,-0.0302,-0.0345,-0.0346,-0.0346,-0.0379,-0.038,-0.038,-0.038,-0.0485,-0.0488,-0.0491,0,0,0,0,0,0,0,0,0,0,0,0,0,-0.0274,-0.0242,-0.03,-0.0323,-0.0326,-0.0345,-0.0346,-0.0346,-0.0379,-0.038,-0.038,-0.038,-0.0484,-0.0487,-0.0491,-0.0506,0,0,-0.0503,-0.0504,0,0,0,0,0,0,0,0,-0.0272,-0.0277,-0.0319,-0.0322,-0.0325,-0.0357,-0.0363,-0.0403,-0.0379,-0.0359,-0.038,-0.0381,-0.0448,-0.0455,-0.0461,-0.0511,-0.0515,-0.0503,-0.0505,-0.0507,-0.0508,0,0,0,0,0,0,0,-0.027,-0.0275,-0.0318,-0.032,-0.0323,-0.033,-0.0336,-0.0371,-0.0402,-0.0361,-0.0363,-0.0368,-0.045,-0.0457,-0.0464,-0.0517,-0.0503,-0.0506,-0.0509,-0.051,-0.06,-0.06,0,0,0,0,0,0,-0.0264,-0.0273,-0.0317,-0.032,-0.0299,-0.0331,-0.0337,-0.0346,-0.04,-0.0408,-0.0368,-0.0369,-0.0451,-0.046,-0.0468,-0.048,-0.0507,-0.0511,-0.0513,-0.06,-0.06,-0.06,0,0,0,0,0,0,-0.0263,-0.0268,-0.0315,-0.0297,-0.0303,-0.0332,-0.0342,-0.0347,-0.0353,-0.0404,-0.0414,-0.0369,-0.0451,-0.0463,-0.0495,-0.0485,-0.0512,-0.0516,-0.06,-0.06,-0.06,-0.051,0,0,0,0,0,0,-0.0261,-0.0267,-0.0267,-0.0297,-0.0304,-0.0313,-0.0341,-0.0347,-0.0356,-0.0358,-0.0409,-0.0419,-0.0453,-0.0489,-0.0499,-0.049,-0.0519,-0.06,-0.06,-0.06,-0.0513,-0.0507,-0.0502,0,0,0,0,0,-0.0259,-0.025,-0.0267,-0.0272,-0.0305,-0.0313,-0.0316,-0.0338,-0.0355,-0.0348,-0.0388,-0.0417,-0.0498,-0.0492,-0.0504,-0.0496,-0.06,-0.06,-0.06,-0.0515,-0.0508,-0.0502,0,0,0,0,0,0,-0.0217,-0.0254,-0.0273,-0.0274,-0.0289,-0.0318,-0.031,-0.0333,-0.0358,-0.0363,-0.0416,-0.0429,-0.0457,-0.0492,-0.0484,-0.0525,-0.0555,-0.0557,-0.0486,-0.048,-0.0475,-0.0413,-0.0522,0,0,0,0,0,-0.021,-0.0219,-0.0249,-0.025,-0.0252,-0.0282,-0.0288,-0.0305,-0.0333,-0.0344,-0.0383,-0.0427,-0.0467,-0.0484,-0.0524,-0.0541,-0.0541,-0.0547,-0.0542,-0.0537,-0.0496,-0.0493,-0.0482,-0.0601,-0.0601,-0.0601,0,0,-0.0195,-0.0216,-0.0221,-0.0242,-0.0254,-0.0238,-0.0286,-0.0287,-0.0277,-0.0353,-0.0353,-0.0412,-0.047,-0.0491,-0.0506,-0.0516,-0.0506,-0.0537,-0.0532,-0.0493,-0.0492,-0.048,-0.0469,-0.0601,-0.0601,-0.0601,0,0,-0.016,-0.0183,-0.0175,-0.0181,-0.0197,-0.0205,-0.0203,-0.023,-0.0243,-0.0262,-0.0315,-0.0355,-0.0418,-0.0444,-0.0471,-0.0459,-0.0483,-0.049,-0.0404,-0.0402,-0.0391,-0.0381,-0.037,-0.0359,-0.0481,-0.0481,-0.0481,0,-0.0138,-0.0127,-0.017,-0.0156,-0.0131,-0.0183,-0.0138,-0.0167,-0.0205,-0.019,-0.025,-0.0315,-0.0386,-0.0383,-0.0395,-0.0442,-0.0441,-0.0421,-0.039,-0.0381,-0.0372,-0.0363,-0.0352,-0.0476,-0.0477,-0.0477,-0.0478,0,-0.0099,-0.0079,-0.0065,-0.0059,-0.0042,-0.0013,-0.0039,-0.0046,-0.0075,-0.0086,-0.0101,-0.0202,-0.0226,-0.0279,-0.0342,-0.0318,-0.0337,-0.0386,-0.0395,-0.0354,-0.0348,-0.0339,-0.047,-0.0472,-0.0473,-0.0474,0,0,-0.0055,-0.0038,-0.0028,0.0026,0.0025,0.0063,0.0069,0.0104,0.0153,0.0066,0.0129,0.0004,-0.0039,-0.0073,-0.0163,-0.0183,-0.0161,-0.0255,-0.0257,-0.0219,-0.014,-0.016,-0.0153,-0.0203,-0.0201,-0.0199,-0.016,0,0.0007,0.0086,0.007,0.0181,0.0247,0.0219,0.0258,0.0271,0.0259,0.0293,0.0189,0.0191,0.0036,0.0019,-0.0025,-0.0119,-0.0132,-0.0165,-0.0204,-0.0204,-0.0208,-0.0141,-0.0149,-0.0115,-0.0151,-0.015,-0.0149,0,0.0067,0.0129,0.0251,0.0362,0.0391,0.0441,0.0549,0.057,0.0575,0.056,0.0529,0.0444,0.0386,0.0241,0.0133,0.012,0.0008,-0.0077,-0.0079,-0.0111,-0.0206,-0.0164,-0.0097,-0.0283,-0.0135,-0.0136,-0.0137,0,0.0185,0.027,0.0398,0.0428,0.0521,0.0582,0.0634,0.0672,0.0725,0.074,0.0777,0.0689,0.0654,0.0506,0.0278,0.0219,0.0177,0.0072,-0.004,-0.0043,-0.006,-0.0067,-0.015,0.0025,0.0025,0.0025,0.0025,0,0.0289,0.0397,0.0467,0.0549,0.0712,0.0733,0.0893,0.0906,0.0961,0.1061,0.0934,0.0968,0.0716,0.0624,0.0403,0.0231,0.0274,0.0018,-0.0019,-0.0032,-0.0038,-0.0211,-0.0313,0.0027,0.0026,0.0026,0.0026,0,0.0417,0.0449,0.0612,0.0735,0.0776,0.0905,0.1031,0.1129,0.1167,0.1283,0.1286,0.1205,0.1091,0.0848,0.0632,0.0415,0.014,0.0157,0.0163,0.0125,-0.0177,-0.0272,-0.0333,-0.0404,0.0058,0.0058,0.0058,0,0.0496,0.0591,0.0752,0.0841,0.0905,0.1063,0.1157,0.1222,0.1313,0.1419,0.1479,0.1418,0.1383,0.109,0.071,0.0399,0.0182,0.0168,0.0036,-0.015,-0.0285,-0.035,-0.041,0.0044,0.0044,0.0044,0.0044,0,0.0674,0.0723,0.085,0.0989,0.1114,0.1251,0.1385,0.1476,0.156,0.1671,0.1775,0.1774,0.1508,0.119,0.0765,0.051,0.0056,0.0155,-0.0036,-0.0276,-0.0349,-0.045,-0.0026,0.0043,0.0043,0.0043,0.0043,0.0043,0.0802,0.0894,0.1009,0.114,0.1269,0.139,0.1504,0.1637,0.1795,0.1957,0.1973,0.2036,0.1589,0.1011,0.0672,0.0039,0.0048,-0.0184,-0.0274,-0.0313,-0.0411,0.0023,0.0037,0.0037,0.0037,0.0037,0.0037,0,0.0911,0.0983,0.113,0.1266,0.1384,0.143,0.1609,0.172,0.1898,0.2095,0.2213,0.2037,0.1499,0.0925,0.0084,-0.0329,-0.0482,-0.0549,-0.0662,-0.0698,-0.0309,-0.0344,-0.0413,-0.0413,-0.0413,-0.0413,-0.0412,-0.0412,0.0973,0.1089,0.1127,0.1303,0.14,0.1547,0.164,0.1829,0.1993,0.2211,0.2278,0.2307,0.1837,0.0443,-0.0524,-0.0748,-0.1002,-0.1045,-0.1163,-0.0946,-0.092,-0.0896,-0.0954,-0.115,-0.115,-0.1516,-0.152,-0.1523]}],[{"header":{"parameterUnit":"m.s-1","parameterCategory":2,"la1":30.2991,"la2":30.254,"lo1":-89.0895,"lo2":-89.0444,"dy":0.0017,"dx":0.0017,"nx":28,"ny":28,"refTime":"2024-03-22T03:00:00:Z","depth":"2","parameterNumber":2,"parameterNumberName":"U-component_of_CURRENTS"},"data":[0,0,0,0,0,0,0,0,0,0,0,0,0,0,0,0,0,0,0,0,0,0,0,0,0,0,0,0,0,0,0,0,0,0,0,0,0,0,0,0,0,0,0,0,0,0,0,0,0,0,0,0,0,0,0,0,0,0,0.2571,0.2572,0,0.2637,0.2638,0.2638,0.2634,0.2633,0.2633,0.2632,0.2604,0.2604,0.2604,0,0,0,0,0,0,0,0,0,0,0,0,0,0.2476,0.2477,0.2571,0.2572,0.2574,0.2637,0.2638,0.2638,0.2634,0.2633,0.2633,0.2632,0.2605,0.2604,0.2604,0,0,0,0,0,0,0,0,0,0,0,0,0,0.2522,0.2477,0.2571,0.2583,0.2585,0.2637,0.2638,0.2638,0.2634,0.2633,0.2632,0.2632,0.2605,0.2604,0.2604,0.2614,0,0,0.2602,0.2602,0,0,0,0,0,0,0,0,0.2519,0.2525,0.258,0.2583,0.2585,0.2632,0.2595,0.2628,0.2634,0.2609,0.2632,0.2631,0.2609,0.2608,0.2615,0.2613,0.2612,0.2602,0.2602,0.2602,0.2602,0,0,0,0,0,0,0,0.2516,0.2522,0.2591,0.2582,0.2585,0.2599,0.2603,0.2601,0.2606,0.2611,0.2613,0.263,0.2609,0.2616,0.2614,0.2612,0.2602,0.2602,0.2602,0.2601,0.268,0.2682,0,0,0,0,0,0,0.2518,0.2519,0.2589,0.2594,0.2556,0.2601,0.2606,0.2613,0.2608,0.2609,0.263,0.2629,0.2617,0.2615,0.2613,0.2659,0.2602,0.2601,0.2601,0.2677,0.268,0.2683,0,0,0,0,0,0,0.2516,0.2524,0.2587,0.2563,0.2573,0.2604,0.2611,0.2614,0.262,0.2624,0.2622,0.2632,0.2616,0.2614,0.2619,0.2656,0.2601,0.2601,0.2674,0.2678,0.2681,0.2729,0,0,0,0,0,0,0.2513,0.2522,0.2539,0.2563,0.2574,0.2607,0.2612,0.2616,0.2634,0.2633,0.2626,0.2623,0.2616,0.262,0.2618,0.2655,0.26,0.2671,0.2676,0.268,0.2724,0.2733,0.2741,0,0,0,0,0,0.2509,0.2536,0.2539,0.2548,0.2592,0.2608,0.2613,0.263,0.2635,0.2632,0.2641,0.2623,0.2648,0.262,0.2618,0.2656,0.2669,0.2675,0.268,0.272,0.2731,0.2741,0,0,0,0,0,0,0.2497,0.254,0.2543,0.2579,0.2586,0.2608,0.2631,0.2632,0.2638,0.2649,0.2635,0.2633,0.2661,0.2652,0.2622,0.2697,0.2663,0.2669,0.2695,0.2705,0.2714,0.2725,0.26,0,0,0,0,0,0.2505,0.2527,0.2558,0.2574,0.2594,0.2609,0.2625,0.2633,0.2643,0.2646,0.2649,0.2665,0.2685,0.2686,0.2701,0.2723,0.2729,0.2755,0.2763,0.277,0.2782,0.2819,0.2831,0.27,0.27,0.27,0,0,0.2498,0.2527,0.2536,0.2572,0.2591,0.2616,0.2615,0.2643,0.2657,0.2643,0.2673,0.2691,0.2699,0.2737,0.2749,0.2728,0.2815,0.2777,0.2782,0.2791,0.2826,0.2838,0.2849,0.2704,0.2703,0.2702,0,0,0.2499,0.2529,0.2555,0.2571,0.2612,0.2628,0.2633,0.2668,0.268,0.2703,0.2719,0.2756,0.2767,0.2797,0.2807,0.287,0.2862,0.2885,0.2929,0.2964,0.2975,0.2984,0.3016,0.3027,0.2885,0.2885,0.2885,0,0.2494,0.2527,0.2558,0.2589,0.2614,0.2631,0.266,0.2675,0.2701,0.2728,0.2717,0.28,0.28,0.2863,0.2894,0.2889,0.2907,0.2881,0.2973,0.2983,0.2991,0.3021,0.3033,0.2888,0.2888,0.2887,0.2887,0,0.251,0.2543,0.2562,0.2606,0.2634,0.2657,0.2695,0.2726,0.275,0.2773,0.2843,0.2864,0.2916,0.2932,0.2926,0.3009,0.3002,0.2979,0.2939,0.3007,0.3035,0.3047,0.2892,0.2891,0.289,0.289,0,0,0.2481,0.256,0.2563,0.259,0.2651,0.2668,0.272,0.2772,0.2815,0.2852,0.292,0.2968,0.3003,0.3021,0.3041,0.3072,0.3148,0.3058,0.3058,0.3077,0.3233,0.316,0.3166,0.314,0.3142,0.3144,0.3229,0,0.2482,0.2537,0.2581,0.2623,0.2663,0.271,0.2753,0.2805,0.2853,0.2924,0.2976,0.3043,0.3028,0.3076,0.3109,0.3155,0.3181,0.3127,0.3177,0.3179,0.3094,0.3178,0.2929,0.2979,0.3241,0.3242,0.3244,0,0.2492,0.2529,0.2582,0.2654,0.2677,0.2712,0.2804,0.2843,0.2946,0.2991,0.3077,0.312,0.3217,0.3177,0.3274,0.3244,0.3246,0.3256,0.3259,0.3182,0.3128,0.2955,0.299,0.3263,0.3262,0.326,0.3259,0,0.246,0.2532,0.2572,0.2592,0.2678,0.2727,0.2779,0.2877,0.2933,0.3057,0.3123,0.322,0.3299,0.3326,0.3359,0.3329,0.3444,0.3397,0.3326,0.3321,0.3115,0.3087,0.3439,0.3439,0.3438,0.3438,0.3438,0,0.2448,0.2474,0.2566,0.2582,0.2642,0.2722,0.2801,0.2869,0.2998,0.3069,0.3167,0.3246,0.334,0.3412,0.3407,0.3422,0.3483,0.3358,0.3346,0.3126,0.31,0.3344,0.3331,0.3441,0.3441,0.344,0.3439,0,0.2401,0.2453,0.2503,0.2599,0.2631,0.268,0.2807,0.287,0.2994,0.3104,0.3155,0.3311,0.3399,0.3461,0.3529,0.3487,0.3498,0.3469,0.321,0.3165,0.3336,0.3326,0.3414,0.3412,0.3411,0.3409,0.3408,0,0.2385,0.2412,0.2498,0.2526,0.2573,0.2657,0.272,0.2856,0.2924,0.3115,0.3165,0.3318,0.3366,0.3467,0.344,0.3436,0.348,0.3188,0.3072,0.3359,0.3339,0.333,0.3322,0.2824,0.2819,0.2814,0.281,0,0.2351,0.2384,0.2407,0.2472,0.2538,0.2595,0.2696,0.2743,0.2897,0.2983,0.3087,0.3153,0.3275,0.3177,0.3208,0.3161,0.3175,0.3092,0.3474,0.2867,0.2809,0.2787,0.2797,0.2769,0.2773,0.2776,0.2778,0.278,0.2313,0.2312,0.2348,0.2399,0.2461,0.2502,0.251,0.2611,0.2674,0.2746,0.2886,0.2894,0.2955,0.2872,0.2794,0.276,0.2957,0.2815,0.2827,0.2844,0.2758,0.2701,0.2625,0.2628,0.2631,0.2633,0.2635,0,0.2256,0.226,0.228,0.23,0.231,0.2411,0.2461,0.2417,0.2419,0.253,0.256,0.2367,0.2334,0.2411,0.2296,0.2298,0.2252,0.2205,0.2118,0.2163,0.2202,0.208,0.1769,0.1766,0.1763,0.176,0,0,0.2217,0.2183,0.2174,0.2137,0.2178,0.216,0.2167,0.2113,0.2127,0.2052,0.206,0.2205,0.2337,0.2006,0.1976,0.1855,0.1986,0.1787,0.249,0.2433,0.2468,0.2573,0.2439,0,0,0,0,0]},{"header":{"parameterUnit":"m.s-1","parameterCategory":2,"la1":30.2991,"la2":30.254,"lo1":-89.0895,"lo2":-89.0444,"dy":0.0017,"dx":0.0017,"nx":28,"ny":28,"refTime":"2024-03-22T03:00:00:Z","depth":"2","parameterNumber":3,"parameterNumberName":"V-component_of_CURRENTS"},"data":[0,0,0,0,0,0,0,0,0,0,0,0,0,0,0,0,0,0,0,0,0,0,0,0,0,0,0,0,0,0,0,0,0,0,0,0,0,0,0,0,0,0,0,0,0,0,0,0,0,0,0,0,0,0,0,0,0,0,0.0154,0.0154,0,0.0092,0.0092,0.0091,0.004,0.0039,0.0039,0.0038,-0.0033,-0.0034,-0.0036,0,0,0,0,0,0,0,0,0,0,0,0,0,0.0177,0.0177,0.0154,0.0154,0.0153,0.0092,0.0091,0.0091,0.004,0.0039,0.0039,0.0038,-0.0032,-0.0034,-0.0036,0,0,0,0,0,0,0,0,0,0,0,0,0,0.0146,0.0177,0.0154,0.0121,0.0117,0.0093,0.0091,0.009,0.004,0.0039,0.0038,0.0038,-0.0032,-0.0034,-0.0036,-0.0036,0,0,-0.0043,-0.0044,0,0,0,0,0,0,0,0,0.0147,0.0145,0.0127,0.0123,0.0119,0.0074,0.0073,0.0048,0.004,0.0068,0.0038,0.0037,0.0003,-0.0002,-0.0013,-0.0039,-0.0042,-0.0043,-0.0044,-0.0045,-0.0046,0,0,0,0,0,0,0,0.015,0.0147,0.0129,0.0126,0.0121,0.0091,0.0086,0.0068,0.004,0.0066,0.0062,0.0057,0.0001,-0.0011,-0.0015,-0.0043,-0.0043,-0.0045,-0.0046,-0.0047,-0.0109,-0.0109,0,0,0,0,0,0,0.0163,0.0149,0.0131,0.0127,0.0133,0.0092,0.0086,0.0088,0.004,0.0032,0.0058,0.0055,-0.0007,-0.0013,-0.0018,-0.0022,-0.0045,-0.0047,-0.0048,-0.0108,-0.0109,-0.0109,0,0,0,0,0,0,0.0164,0.0162,0.0133,0.0137,0.0131,0.0093,0.0095,0.0087,0.0077,0.0034,0.0025,0.0055,-0.0008,-0.0015,-0.0035,-0.0025,-0.0048,-0.005,-0.0108,-0.0108,-0.0109,-0.0029,0,0,0,0,0,0,0.0165,0.0163,0.0167,0.0138,0.0131,0.0128,0.0095,0.0087,0.0075,0.0071,0.0029,0.0021,-0.0009,-0.0031,-0.0037,-0.0028,-0.0052,-0.0108,-0.0108,-0.0109,-0.0031,-0.0026,-0.0022,0,0,0,0,0,0.0166,0.0178,0.0168,0.0165,0.0139,0.0129,0.0123,0.0091,0.0076,0.0078,0.0044,0.0022,-0.004,-0.0032,-0.0039,-0.0031,-0.0107,-0.0108,-0.0109,-0.0033,-0.0027,-0.0023,0,0,0,0,0,0,0.0188,0.0173,0.0161,0.0167,0.0153,0.0121,0.0119,0.0099,0.0074,0.0068,0.0026,0.0017,-0.0,-0.0029,-0.0021,-0.0055,-0.008,-0.0082,-0.002,-0.0015,-0.0011,0.0013,-0.0054,0,0,0,0,0,0.0196,0.0205,0.0181,0.0189,0.0183,0.0153,0.0144,0.0125,0.0099,0.0087,0.0056,0.0019,-0.0009,-0.0021,-0.0052,-0.0061,-0.0093,-0.0066,-0.0062,-0.0058,-0.0045,-0.009,-0.0088,-0.0111,-0.0111,-0.0111,0,0,0.0207,0.0201,0.0205,0.0195,0.018,0.0184,0.0146,0.0139,0.0142,0.0085,0.0076,0.0035,-0.0009,-0.0025,-0.0036,-0.0046,-0.007,-0.0059,-0.0054,-0.0044,-0.0091,-0.0088,-0.0086,-0.0112,-0.0112,-0.0112,0,0,0.0239,0.0229,0.0246,0.024,0.0226,0.0209,0.0212,0.0181,0.0166,0.0154,0.0108,0.0076,0.0038,0.0005,-0.0014,-0.0005,-0.0047,-0.0021,0.0026,-0.0017,-0.0015,-0.0013,-0.005,-0.0052,-0.0016,-0.0016,-0.0016,0,0.025,0.0271,0.0249,0.0264,0.0265,0.0227,0.0244,0.0227,0.0193,0.0183,0.0161,0.0094,0.0054,0.0036,0.0033,0.0007,-0.0023,0.0017,-0.0009,-0.0008,-0.0008,-0.0046,-0.0049,-0.0012,-0.0013,-0.0013,-0.0014,0,0.0296,0.0309,0.032,0.0329,0.0327,0.0336,0.0313,0.0303,0.0277,0.0254,0.0226,0.0167,0.0129,0.0105,0.0075,0.0056,0.0033,0.0003,-0.0013,-0.0,-0.0042,-0.0047,-0.0007,-0.0008,-0.001,-0.001,0,0,0.033,0.0348,0.0354,0.0364,0.0362,0.0363,0.0373,0.0364,0.0368,0.0325,0.0328,0.0264,0.0226,0.02,0.015,0.0111,0.0081,0.0066,0.0062,0.0046,-0.0009,-0.0033,-0.0042,0.0049,0.0049,0.0048,-0.0037,0,0.0372,0.0417,0.0414,0.045,0.0465,0.044,0.0454,0.044,0.0417,0.0409,0.0348,0.0328,0.0266,0.0249,0.0202,0.0115,0.0071,0.0107,-0.0033,-0.0037,-0.0047,-0.0048,-0.0004,-0.0077,-0.0042,-0.0043,-0.0044,0,0.0418,0.0442,0.0489,0.0504,0.0509,0.0527,0.0534,0.0542,0.0522,0.0504,0.0473,0.0424,0.0373,0.0314,0.0182,0.0209,0.011,0.0035,0.0029,-0.0022,-0.0071,-0.0088,-0.0088,-0.0053,-0.0052,-0.0052,-0.0051,0,0.0452,0.0488,0.0528,0.0537,0.0554,0.0569,0.058,0.0573,0.0593,0.0572,0.0585,0.0502,0.0483,0.0348,0.02,0.0188,0.0052,0.001,-0.0108,-0.0111,-0.0115,-0.0118,-0.0092,-0.0092,-0.0091,-0.0091,-0.0091,0,0.0496,0.0523,0.0549,0.0573,0.0613,0.0614,0.0655,0.0651,0.0676,0.0717,0.0644,0.0662,0.0492,0.0397,0.0234,0.006,0.0073,-0.0095,-0.0134,-0.0088,-0.0087,-0.01,-0.01,-0.0094,-0.0094,-0.0093,-0.0092,0,0.0519,0.0543,0.058,0.0615,0.0631,0.066,0.0717,0.0754,0.0769,0.0828,0.0833,0.0791,0.0667,0.0479,0.0269,0.0123,-0.0061,-0.0133,-0.0061,-0.0091,-0.0206,-0.0201,-0.0274,-0.0276,-0.0277,-0.0278,-0.0279,0,0.0534,0.0559,0.061,0.0644,0.0664,0.0713,0.076,0.0796,0.0852,0.091,0.0954,0.0876,0.0833,0.0528,0.0248,-0.0038,-0.0077,-0.0187,-0.0213,-0.0194,-0.0224,-0.0217,-0.0211,-0.019,-0.019,-0.019,-0.019,0,0.0545,0.0563,0.0592,0.068,0.0737,0.0801,0.0879,0.0947,0.101,0.1069,0.1139,0.1117,0.0852,0.0598,0.022,0.0026,-0.014,-0.0199,-0.0197,-0.0148,-0.0121,-0.0148,-0.0144,-0.0191,-0.0191,-0.0191,-0.0191,-0.0191,0.0539,0.0564,0.0623,0.0705,0.0782,0.09,0.0981,0.1082,0.1196,0.1305,0.1265,0.1241,0.0956,0.0483,0.0166,-0.0161,-0.016,-0.0272,-0.0269,-0.0266,-0.0239,-0.0215,-0.0298,-0.0298,-0.0299,-0.0299,-0.03,0,0.054,0.0586,0.0654,0.0763,0.0873,0.0917,0.107,0.1164,0.1326,0.1389,0.1427,0.115,0.0873,0.0541,0.0068,-0.0227,-0.0243,-0.0321,-0.0264,-0.026,-0.0258,-0.0229,-0.0287,-0.0287,-0.0288,-0.0289,0,0,0.0538,0.0602,0.0653,0.0829,0.0925,0.1087,0.1194,0.133,0.1415,0.1474,0.1457,0.137,0.0986,0.0639,0.025,-0.0007,-0.0071,-0.0068,-0.0044,0.0074,0.008,-0.0195,-0.0143,0,0,0,0,0]}],[{"header":{"parameterUnit":"m.s-1","parameterCategory":2,"la1":30.2991,"la2":30.254,"lo1":-89.0895,"lo2":-89.0444,"dy":0.0017,"dx":0.0017,"nx":28,"ny":28,"refTime":"2024-03-22T03:00:00:Z","depth":"4","parameterNumber":2,"parameterNumberName":"U-component_of_CURRENTS"},"data":[0,0,0,0,0,0,0,0,0,0,0,0,0,0,0,0,0,0,0,0,0,0,0,0,0,0,0,0,0,0,0,0,0,0,0,0,0,0,0,0,0,0,0,0,0,0,0,0,0,0,0,0,0,0,0,0,0,0,0.1412,0.1413,0,0.1504,0.1505,0.1506,0.1583,0.1584,0.1585,0.1585,0.166,0.1661,0.1663,0,0,0,0,0,0,0,0,0,0,0,0,0,0.1345,0.1346,0.1412,0.1413,0.1414,0.1504,0.1505,0.1506,0.1583,0.1584,0.1585,0.1586,0.166,0.1661,0.1663,0,0,0,0,0,0,0,0,0,0,0,0,0,0.14,0.1346,0.1411,0.1462,0.1467,0.1503,0.1505,0.1507,0.1583,0.1584,0.1585,0.1586,0.1659,0.1661,0.1663,0.1653,0,0,0.1669,0.167,0,0,0,0,0,0,0,0,0.1397,0.1403,0.1454,0.1459,0.1465,0.1532,0.1509,0.1555,0.1582,0.154,0.1585,0.1587,0.1614,0.162,0.1637,0.1657,0.166,0.1669,0.167,0.1671,0.1672,0,0,0,0,0,0,0,0.1393,0.1399,0.1449,0.1455,0.1461,0.1495,0.1504,0.1519,0.157,0.1544,0.1549,0.1558,0.1618,0.1634,0.1639,0.1661,0.1669,0.1671,0.1672,0.1673,0.1791,0.1793,0,0,0,0,0,0,0.1376,0.1395,0.1446,0.1452,0.1432,0.1495,0.1505,0.151,0.1571,0.1581,0.1557,0.1561,0.1631,0.1636,0.1642,0.1728,0.1671,0.1673,0.1674,0.1789,0.1791,0.1793,0,0,0,0,0,0,0.1374,0.138,0.1442,0.1425,0.1436,0.1495,0.15,0.1511,0.1563,0.158,0.1591,0.16,0.1632,0.1639,0.1692,0.1728,0.1674,0.1676,0.1787,0.179,0.1792,0.1841,0,0,0,0,0,0,0.1372,0.1378,0.1396,0.1424,0.1436,0.149,0.15,0.1512,0.1563,0.1571,0.162,0.1627,0.1633,0.1689,0.1694,0.173,0.1677,0.1784,0.1788,0.1791,0.1836,0.1845,0.1852,0,0,0,0,0,0.1369,0.1377,0.1396,0.1404,0.1452,0.1491,0.1502,0.1547,0.1565,0.1596,0.1632,0.1627,0.1716,0.1692,0.1697,0.1735,0.1782,0.1787,0.1791,0.1833,0.1843,0.1852,0,0,0,0,0,0,0.1366,0.1386,0.1408,0.1426,0.147,0.1504,0.1537,0.1563,0.1617,0.1634,0.1647,0.1656,0.1718,0.172,0.1693,0.1782,0.175,0.1756,0.178,0.179,0.1797,0.1796,0.1679,0,0,0,0,0,0.137,0.138,0.1416,0.1438,0.1459,0.1505,0.1533,0.1568,0.1607,0.1634,0.1666,0.1702,0.1733,0.1758,0.1786,0.1828,0.1831,0.1859,0.1866,0.1873,0.1878,0.1916,0.1927,0.1808,0.1808,0.1808,0,0,0.1376,0.1389,0.1399,0.1439,0.1476,0.1512,0.1526,0.1581,0.1621,0.163,0.1702,0.1731,0.1752,0.1807,0.1834,0.1818,0.191,0.1878,0.1883,0.1885,0.1922,0.1933,0.1944,0.1811,0.181,0.181,0,0,0.1384,0.1407,0.1422,0.1456,0.1515,0.1542,0.1563,0.1621,0.1663,0.1724,0.1746,0.1799,0.1845,0.1874,0.1889,0.1955,0.1948,0.197,0.2008,0.2046,0.2056,0.2065,0.2083,0.2092,0.1974,0.1974,0.1974,0,0.1397,0.1417,0.1439,0.1467,0.1503,0.1555,0.1597,0.1638,0.1712,0.1745,0.1758,0.1854,0.1875,0.1936,0.1967,0.1972,0.1986,0.1968,0.2055,0.2064,0.2072,0.2088,0.2098,0.1977,0.1976,0.1976,0.1976,0,0.1411,0.1446,0.146,0.1508,0.155,0.1597,0.1651,0.1707,0.1758,0.1797,0.1884,0.1925,0.1982,0.2001,0.2004,0.2079,0.2069,0.2058,0.2026,0.2086,0.21,0.211,0.1981,0.198,0.1979,0.1978,0,0,0.1391,0.1458,0.1467,0.15,0.1581,0.1609,0.1683,0.1755,0.1803,0.1881,0.1946,0.2016,0.2051,0.2072,0.2096,0.2133,0.2203,0.2127,0.2127,0.2135,0.2281,0.2136,0.2132,0.221,0.2212,0.2214,0.2267,0,0.1407,0.146,0.1493,0.1557,0.1596,0.1662,0.1716,0.1789,0.1859,0.1932,0.1995,0.2067,0.2073,0.2121,0.216,0.2195,0.2231,0.2189,0.223,0.2231,0.2087,0.2139,0.2221,0.2274,0.2276,0.2278,0.2279,0,0.1405,0.1446,0.1514,0.1584,0.1607,0.1655,0.1756,0.1815,0.192,0.1976,0.2065,0.2115,0.2203,0.2195,0.2284,0.226,0.2281,0.2296,0.2298,0.215,0.2103,0.2204,0.2296,0.2295,0.2293,0.2292,0.2291,0,0.137,0.1449,0.1505,0.1534,0.1628,0.1676,0.1734,0.1838,0.1893,0.2024,0.2079,0.2179,0.225,0.2295,0.2338,0.2326,0.2413,0.2394,0.228,0.227,0.2362,0.2353,0.2453,0.2453,0.2453,0.2453,0.2453,0,0.1353,0.1394,0.1497,0.1526,0.1587,0.1666,0.1747,0.1817,0.1929,0.1988,0.2108,0.2169,0.2283,0.2343,0.2362,0.2344,0.2436,0.2292,0.2277,0.2382,0.2374,0.2369,0.2358,0.2455,0.2455,0.2454,0.2454,0,0.1298,0.1369,0.1428,0.1536,0.1574,0.162,0.1738,0.178,0.1909,0.1997,0.2046,0.2188,0.2269,0.2343,0.2423,0.2362,0.2365,0.2337,0.2445,0.2434,0.2191,0.2183,0.221,0.2205,0.2201,0.2198,0.2195,0,0.1273,0.1304,0.142,0.1445,0.1498,0.1584,0.1631,0.1762,0.1808,0.1984,0.2002,0.2145,0.2223,0.2214,0.2306,0.2325,0.2304,0.2282,0.2234,0.2185,0.2169,0.2167,0.2164,0.2189,0.2188,0.2187,0.2186,0,0.1213,0.1265,0.1313,0.1378,0.143,0.1477,0.156,0.1584,0.1729,0.1861,0.1922,0.198,0.2067,0.2129,0.2163,0.2172,0.2279,0.224,0.2248,0.2203,0.216,0.2147,0.2149,0.2172,0.2174,0.2176,0.2176,0,0.1163,0.1174,0.1239,0.1281,0.1336,0.1344,0.1408,0.1464,0.1533,0.1725,0.1746,0.19,0.2043,0.205,0.2078,0.2079,0.2052,0.1977,0.1998,0.2014,0.1925,0.1841,0.1746,0,0,0,0,0,0.1103,0.1099,0.1127,0.1156,0.1203,0.1237,0.1338,0.1405,0.1559,0.1551,0.1644,0.1718,0.1789,0.1872,0.1837,0.1991,0.2054,0.194,0.1975,0.2097,0.2113,0.2027,0,0,0,0,0,0,0.1052,0.1078,0.1091,0.1045,0.1039,0.1076,0.1136,0.1239,0.1248,0.1417,0.1468,0.16,0.1697,0.1787,0.1798,0.1821,0.1805,0.2039,0.2034,0.2088,0.2102,0.2115,0.2033,0,0,0,0,0]},{"header":{"parameterUnit":"m.s-1","parameterCategory":2,"la1":30.2991,"la2":30.254,"lo1":-89.0895,"lo2":-89.0444,"dy":0.0017,"dx":0.0017,"nx":28,"ny":28,"refTime":"2024-03-22T03:00:00:Z","depth":"4","parameterNumber":3,"parameterNumberName":"V-component_of_CURRENTS"},"data":[0,0,0,0,0,0,0,0,0,0,0,0,0,0,0,0,0,0,0,0,0,0,0,0,0,0,0,0,0,0,0,0,0,0,0,0,0,0,0,0,0,0,0,0,0,0,0,0,0,0,0,0,0,0,0,0,0,0,0.0239,0.0239,0,0.0208,0.0208,0.0207,0.0181,0.0181,0.018,0.018,0.014,0.0139,0.0138,0,0,0,0,0,0,0,0,0,0,0,0,0,0.0232,0.0233,0.0239,0.0239,0.0239,0.0208,0.0208,0.0207,0.0181,0.0181,0.018,0.018,0.014,0.0139,0.0138,0,0,0,0,0,0,0,0,0,0,0,0,0,0.022,0.0233,0.0239,0.0223,0.0221,0.0208,0.0208,0.0207,0.0181,0.0181,0.018,0.018,0.014,0.0139,0.0138,0.0134,0,0,0.0133,0.0133,0,0,0,0,0,0,0,0,0.0221,0.0221,0.0226,0.0224,0.0222,0.0199,0.019,0.0183,0.0181,0.0195,0.018,0.018,0.016,0.0157,0.015,0.0132,0.013,0.0133,0.0132,0.0132,0.0131,0,0,0,0,0,0,0,0.0222,0.0221,0.0225,0.0225,0.0223,0.0202,0.0201,0.0189,0.0178,0.0193,0.0192,0.0191,0.0159,0.0151,0.0149,0.013,0.0133,0.0132,0.0131,0.0131,0.01,0.01,0,0,0,0,0,0,0.0232,0.0223,0.0227,0.0225,0.0223,0.0203,0.0201,0.0206,0.0178,0.0174,0.0191,0.019,0.0154,0.015,0.0147,0.0148,0.0132,0.0131,0.013,0.01,0.01,0.01,0,0,0,0,0,0,0.0232,0.0232,0.0228,0.0224,0.0222,0.0204,0.0209,0.0205,0.0199,0.0177,0.0172,0.0189,0.0153,0.0149,0.0136,0.0146,0.013,0.0129,0.01,0.01,0.01,0.0145,0,0,0,0,0,0,0.0232,0.0233,0.024,0.0225,0.0222,0.0223,0.0209,0.0205,0.0199,0.0197,0.0173,0.0169,0.0153,0.0139,0.0135,0.0143,0.0128,0.01,0.01,0.01,0.0143,0.0146,0.0149,0,0,0,0,0,0.0232,0.0245,0.0241,0.0241,0.0233,0.0223,0.022,0.0205,0.02,0.0198,0.0181,0.017,0.0136,0.0138,0.0133,0.0142,0.01,0.01,0.01,0.0142,0.0146,0.0149,0,0,0,0,0,0,0.0242,0.0243,0.0238,0.025,0.0238,0.0219,0.0221,0.0209,0.0194,0.0196,0.0171,0.0165,0.0158,0.0141,0.0143,0.0131,0.0116,0.0115,0.0149,0.0153,0.0155,0.0157,0.0126,0,0,0,0,0,0.025,0.0263,0.025,0.0259,0.0257,0.0239,0.0234,0.0225,0.021,0.0204,0.0186,0.0168,0.0155,0.0147,0.0132,0.0127,0.0091,0.0128,0.0131,0.0133,0.0131,0.008,0.0078,0.01,0.01,0.01,0,0,0.0255,0.0259,0.0265,0.0263,0.0255,0.0257,0.0235,0.0234,0.0233,0.0202,0.0198,0.0179,0.0155,0.0148,0.0144,0.0136,0.0108,0.0133,0.0136,0.0131,0.008,0.0078,0.0076,0.01,0.01,0.01,0,0,0.0276,0.0278,0.0294,0.0289,0.0284,0.0274,0.0276,0.0259,0.0249,0.0242,0.022,0.0202,0.0185,0.0165,0.0155,0.0162,0.0125,0.0162,0.0178,0.013,0.0127,0.0125,0.0078,0.0071,0.0163,0.0163,0.0163,0,0.0281,0.03,0.0294,0.0305,0.0302,0.0286,0.0292,0.0284,0.0263,0.0253,0.0248,0.0209,0.0192,0.0174,0.0179,0.0169,0.0135,0.017,0.0133,0.013,0.0127,0.0079,0.0071,0.0165,0.0165,0.0165,0.0165,0,0.0309,0.0322,0.033,0.0341,0.0337,0.0341,0.0329,0.0322,0.0311,0.0296,0.0275,0.0245,0.0219,0.0214,0.0202,0.0174,0.0155,0.0144,0.0126,0.0127,0.0077,0.0068,0.0168,0.0168,0.0167,0.0166,0,0,0.0326,0.0346,0.035,0.0351,0.0355,0.035,0.0356,0.0344,0.0339,0.032,0.0304,0.0281,0.0259,0.0244,0.022,0.0183,0.0134,0.0159,0.0155,0.0115,0.0024,0.0028,0.0017,0.0116,0.0115,0.0114,-0.0001,0,0.0345,0.0371,0.0377,0.0391,0.0395,0.0382,0.0385,0.0372,0.0359,0.0341,0.0307,0.029,0.0273,0.0261,0.0221,0.0159,0.0111,0.0166,0.0026,0.0022,0.0028,0.0007,0.0109,-0.0008,-0.001,-0.0012,-0.0013,0,0.0367,0.038,0.04,0.0401,0.0402,0.0411,0.0399,0.0401,0.0379,0.0366,0.0341,0.0315,0.027,0.0252,0.0138,0.0174,0.0101,0.0048,0.0042,0.0022,0.0008,-0.0011,-0.0031,-0.003,-0.0028,-0.0027,-0.0026,0,0.0369,0.0391,0.0406,0.0408,0.0414,0.0416,0.0421,0.0408,0.0414,0.0386,0.0383,0.0319,0.0297,0.0198,0.0105,0.0114,-0.0031,-0.0037,-0.0108,-0.0109,-0.0097,-0.0093,-0.0136,-0.0136,-0.0136,-0.0135,-0.0135,0,0.0379,0.0388,0.0409,0.0415,0.0425,0.0427,0.0443,0.0431,0.0435,0.0453,0.0401,0.0395,0.0282,0.0198,0.0097,-0.003,-0.0043,-0.0115,-0.0141,-0.0075,-0.0068,-0.0104,-0.0099,-0.014,-0.0139,-0.0138,-0.0137,0,0.0368,0.039,0.0401,0.0418,0.0429,0.0435,0.0475,0.0491,0.0484,0.0505,0.0503,0.0445,0.034,0.021,0.005,-0.0029,-0.016,-0.0208,-0.013,-0.0148,-0.0207,-0.0198,-0.0304,-0.0305,-0.0305,-0.0306,-0.0306,0,0.0361,0.037,0.0403,0.0425,0.0437,0.0464,0.0496,0.0513,0.0546,0.0545,0.0559,0.047,0.0417,0.0194,0.0049,-0.0167,-0.0191,-0.0268,-0.0237,-0.0211,-0.0226,-0.0216,-0.0206,-0.0308,-0.0308,-0.0308,-0.0308,0,0.0336,0.0355,0.0371,0.0431,0.0471,0.0517,0.0569,0.0597,0.0633,0.0619,0.0612,0.0506,0.0383,0.0214,0.004,-0.0109,-0.0221,-0.0277,-0.0276,-0.0247,-0.0217,-0.0229,-0.0219,-0.0311,-0.031,-0.031,-0.031,0,0.0318,0.033,0.0381,0.0431,0.0497,0.0574,0.059,0.0642,0.0673,0.0677,0.0674,0.0543,0.0467,0.0242,0.0087,-0.0066,-0.0101,-0.0146,-0.0153,-0.0152,-0.0069,-0.0006,-0.0065,0,0,0,0,0,0.0303,0.0338,0.0384,0.046,0.0535,0.0584,0.0651,0.0671,0.0705,0.0711,0.0699,0.059,0.0375,0.0279,0.0127,0.0057,-0.0143,-0.0128,-0.0201,-0.0325,-0.0322,-0.025,0,0,0,0,0,0,0.0296,0.034,0.0382,0.0494,0.0557,0.0651,0.0701,0.0716,0.0722,0.0723,0.0612,0.0553,0.0338,0.0466,0.0127,0.0078,0.0011,-0.0234,-0.0237,-0.0327,-0.0324,-0.0322,-0.0247,0,0,0,0,0]}]]